www.pogodaiklimat.ru
Время
(UTC), дата
03 8.08
06 8.08
09 8.08
12 8.08
15 8.08
18 8.08
21 8.08
00 9.08
03 9.08
06 9.08
09 9.08
12 9.08
15 9.08
18 9.08
21 9.08
00 10.08
03 10.08
06 10.08
09 10.08
12 10.08
15 10.08
18 10.08
21 10.08
00 11.08
03 11.08
06 11.08
09 11.08
12 11.08
15 11.08
18 11.08
21 11.08
00 12.08
03 12.08
06 12.08
09 12.08
12 12.08
15 12.08
18 12.08
21 12.08
00 13.08
03 13.08
06 13.08
09 13.08
12 13.08
15 13.08
18 13.08
21 13.08
00 14.08
03 14.08
06 14.08
09 14.08
12 14.08
15 14.08
18 14.08
21 14.08
00 15.08
Ветер
(напр.,м/с)
Видим. Явления Облачность Т
(С)
Тd
(С)
f
(%)
Тe
(С)
Тes
(С)
Комфортность P
(гПа)
Po
(гПа)
Тmin
(С)
Tmax
(С)
R
(мм)
R24
(мм)
S
(см)
ЮЗ 1 10 км 10/4 600 м
[Cb cap Ac trans Ci fib]
+19.9 +13.2 65 +23 +26 комфорт 1003.4 956.3
С 2 4000 м мгла 10/0
[Ac trans Ci sp]
+25.5 +8.4 34 +26 +35 жарко 1002.5 956.3
С 2 10 км 8/3 1000 м
[Cu med, cong Ci fib]
+26.0 +6.7 29 +26 +29 жарко 1002.5 956.3
СЗ 1 10 км дым 6/0
[Ci fib]
+22.9 +7.5 37 +24 +24 комфорт 1003.6 956.9 +26.7
С 1 н/о 4/0
[Ci fib]
+18.7 +7.8 49 +20 +20 1004.7 957.3
штиль 0 н/о 6/0
[Ac trans Ci fib]
+15.9 +8.9 63 +16 +16 1005.4 957.5
штиль 0 10 км дым 10/3 1000 м
[Sc Ac lent Ci fib]
+15.2 +8.7 65 +15 +15 1005.4 957.4
С 1 20 км 8/0
[Ac trans Ci fib]
+16.6 +9.6 63 +18 +20 1005.9 958.2 +14.1
ЮВ 1 20 км 3/1 1000 м
[Cu hum Ci fib]
+21.1 +11.5 54 +23 +33 комфорт 1005.2 958.2
СВ 1 20 км 6/1 1000 м
[Cu med, cong Ac trans Ci fib]
+25.7 +9.8 37 +26 +36 жарко 1003.5 957.2
С 2 10 км дым 6/1 1000 м
[Sc Ac trans Ci sp]
+26.1 +5.7 27 +25 +29 комфорт 1003.5 957.2
СЗ 1 10 км дым 3/3 1000 м
[Sc]
+23.4 +6.8 34 +24 +24 комфорт 1004.2 957.5 +26.7
штиль 0 н/о 3/0
[Ci fib]
+18.6 +7.7 49 +19 +19 1005.4 957.9
ЮЗ 1 н/о 3/0
[Ac trans]
+15.6 +11.2 75 +16 +16 1006.2 958.3
штиль 0 20 км 10/1 1000 м
[Cu hum Ac trans Ci fib]
+15.1 +8.2 63 +15 +15 1006.7 958.7
ЮВ 1 10 км дым 3/0
[Ac trans]
+16.1 +10.6 70 +17 +19 1007.4 959.5 +13.4
Ю 1 10 км дым 8/0
[Ac trans]
+18.8 +12.4 66 +21 +27 комфорт 1007.3 959.9
Ю 1 10 км дым 3/0
[Ac trans]
+23.4 +11.8 48 +26 +37 жарко 1005.6 959.0
ЮЗ 1 10 км дым 4/3 1000 м
[Cu med, cong Ac trans Ci fib]
+26.2 +8.5 33 +26 +31 жарко 1004.4 958.2
штиль 0 10 км дым ясно +24.1 +9.0 38 +25 +25 комфорт 1004.8 958.3 +26.8
штиль 0 н/о ясно +19.0 +7.8 48 +19 +19 1006.0 958.6
СЗ 1 н/о ясно +16.5 +9.7 64 +17 +17 1006.4 958.6
штиль 0 н/о 4/0
[Ac lent Ci sp]
+13.7 +10.2 79 +13 +13 1006.7 958.4
штиль 0 20 км 9/6 1000 м
[Cb cap Ac lent Cc]
+14.6 +11.3 81 +14 +15 1006.9 958.8 +13.0
З 1 10 км 3/0
[Ac cast Ci sp]
+17.9 +12.7 72 +19 +29 1006.2 958.7
З 1 20 км 10/3 1000 м
[Cu med, cong Ci]
+24.7 +9.8 39 +26 +33 жарко 1004.4 958.0
В 1
{15}
20 км {гроза, ливн. дождь} 6/3 1000 м
[Cb cap Ac cast Ci ing]
+25.6 +10.8 39 +27 +30 жарко 1003.6 957.4
штиль 0 20 км {гроза, ливн. дождь} 10/3 1000 м
[Sc diur, vesp Ac cast Ci fib]
+23.0 +11.6 49 +25 +26 комфорт 1004.5 957.8 +25.9 0.8
СВ 1 н/о 8/0
[Ci sp]
+18.8 +12.6 67 +21 +21 комфорт 1005.5 958.2
штиль 0 н/о 4/0
[Ac trans Ci fib]
+16.6 +13.6 82 +16 +16 1005.8 958.1
штиль 0 н/о 1/0
[Ci fib]
+15.3 +13.7 90 +15 +15 1005.8 957.9
В 1 20 км 1/0
[Ac trans]
+17.6 +13.4 76 +19 +21 1005.4 957.9 +14.3
ЮЗ 1 50 км ясно +19.9 +13.9 68 +23 +34 комфорт 1004.7 957.6
Ю 2 20 км 3/3 1000 м
[Cu med, cong]
+23.5 +13.7 54 +26 +34 жарко 1003.4 956.9
ЮВ 2 20 км 8/3 1000 м
[Cb calv Ac lent Ci sp]
+24.3 +15.2 57 +27 +30 жарко 1002.0 955.7
штиль 0 50 км 8/3 1000 м
[Cb cap Ci ing]
+20.8 +13.3 62 +23 +23 комфорт 1002.6 955.7 +24.9
СВ 1 н/о 10/0
[Ci sp]
+18.2 +12.9 71 +20 +20 1003.4 956.1
СВ 1 н/о 4/0
[Ci fib]
+16.4 +12.5 78 +17 +17 1003.1 955.5
штиль 0 н/о ясно +14.0 +12.3 89 +14 +14 1003.0 955.0
СВ 1 1000 м туман на расстоянии 6/0
[Cc]
+15.0 +12.0 82 +16 +18 1003.4 955.5 +13.0
Ю 1 20 км 8/0
[Ac trans Ci fib]
+20.1 +12.9 63 +23 +31 комфорт 1002.1 955.2
ЮЗ 1 50 км 8/3 1000 м
[Cu med, cong Ci fib]
+23.2 +14.5 58 +27 +35 душно 1000.6 954.2
СВ 1 50 км 10/3 600 м
[Cb cap Ac As]
+24.2 +12.0 46 +26 +27 жарко 1000.3 954.0
СЗ 1 50 км 10/3 1000 м
[Sc Ac lent Ci sp]
+21.2 +12.6 58 +23 +24 комфорт 1000.9 954.2 +24.7
С 1 н/о 10/0
[Ac und Ci fib]
+17.0 +12.9 77 +18 +18 1002.4 954.9
С 1 н/о 3/0
[Ci fib]
+14.8 +12.7 87 +15 +15 1002.5 954.7
С 1 н/о 3/0
[Ci fib]
+13.2 +11.9 92 +13 +13 1003.5 955.3
В 1 1000 м туман на расстоянии 3/0
[Ci fib]
+14.3 +11.9 85 +15 +17 1004.1 956.1 +12.6
В 2 50 км 8/0
[Ac trans Ci sp]
+19.4 +13.3 68 +21 +28 комфорт 1003.8 956.6
В 2 50 км 5/4 1000 м
[Cb cap Ci ing]
+25.0 +13.0 47 +27 +34 жарко 1002.4 956.2
В 1 50 км {ливн. дождь} 8/3 1000 м
[Cb cap Ci]
+25.2 +8.7 35 +26 +29 жарко 1002.6 956.3
В 2 50 км {ливн. дождь} 8/3 1000 м
[Cu Sc Ci fib]
+22.0 +10.5 48 +24 +24 комфорт 1004.3 957.5 +25.5 0.0
СВ 1 н/о 4/0
[Ci fib]
+18.4 +10.5 60 +20 +20 1006.5 959.0
В 1 н/о 6/0
[Ac trans Ci fib]
+16.9 +11.3 70 +18 +18 1008.2 960.4
СВ 1 н/о 8/0
[Ci fib]
+13.6 +11.3 86 +14 +14 1009.5 961.1
СВ 1 50 км 6/0
[Ac trans Ci fib]
+15.1 +11.2 78 +16 +18 1010.4 962.2 +12.4
Местоположение метеостанции Братск (Иркутская область, Россия): широта 56.28 долгота 101.70 высота над уровнем моря 416 м.
В архиве по умолчанию представлена погода в Братске за последнюю неделю. Архивные данные за месяц целиком и за предыдущие месяцы, начиная с января 2011 года, Вы можете получить, выбрав интересующий диапазон дат из раскрывающегося списка и нажав кнопку "Найти!".
*Определитесь, кто Вы:
Внимание! Время в таблицах - всемирное. Для получения местного времени необходимо прибавить поправку, которая равна 8 ч.
Смотрите также архив погоды в соседних городах и на ближайших метеорологических станциях:
Партнеры нашего сайта:      
Пояснения к столбцам:
  • Ветер - указаны скорость ветра в м/с - средняя за 10 мин, порывы в срок и между сроками (в фигурных скобках) и направление, откуда дует ветер: С - северный,
  • СВ - северо-восточный, В - восточный, ЮВ - юго-восточный, Ю - южный, ЮЗ - юго-западный, З - западный, СЗ - северо-западный.
  • Видимость - горизонтальная дальность видимости в метрах или километрах. При видимости от 1 до 10 км при отсутствии осадков обычно наблюдается дымка, при ухудшении видимости до 1 км и менее - туман. В сухую погоду видимость может ухудшаться дымом, пылью или мглою.
  • Явления - указаны атмосферные явления, наблюдавшиеся в срок или в последний час перед сроком; фигурными скобками обозначены явления, наблюдавшиеся между сроками (за 1-3 часа до срока); квадратными скобками обозначены град или гололедные отложения с указанием их диаметра в мм.
  • Облачность - указаны через наклонную черту общая и нижняя облачность в баллах и высота нижней границы облаков в метрах; квадратными скобками обозначены формы облаков: Ci - перистые, Cs - перисто-слоистые, Cc - перисто-кучевые, Ac - высококучевые, As - высокослоистые, Sc - слоисто-кучевые, Ns - слоисто-дождевые, Cu - кучевые, Cb - кучево-дождевые. Подробнее классификацию облаков см. в Атласе облаков (PDF).
  • T - Температура воздуха - температура, измеренная на высоте 2 м над землей.
  • Td - Температура точки росы - температура, при понижении до которой содержащийся в воздухе водяной пар достигнет насыщения.
  • f - Относительная влажность воздуха - влажноcть воздуха, измеренная на высоте 2 м над землей.
  • Te - Эффективная температура - температура, которую ощущает одетый по сезону человек в тени. Характеристика душности погоды. При расчете учитывается влияние влажности воздуха и скорости ветра на теплоощущения человека.
  • Tes - Эффективная температура на солнце - температура, которую ощущает человек, с поправкой на солнечный нагрев. Характеристика знойности погоды. Зависит от высоты солнца над горизонтом, облачности и скорости ветра. Ночью, в пасмурную погоду, а также при ветре 12 м/с и более поправка равна нулю.
  • P - Атмосферное давление - приведенное к уровню моря атмосферное давление.
  • Po - Атмосферное давление - измеренное на уровне метеостанции атмосферное давление.
  • Tmin - Минимальная температура - минимум температуры воздуха на высоте 2 м над землей.
  • Tmax - Максимальная температура - максимум температуры воздуха на высоте 2 м над землей.
  • R - Количество осадков - Количество выпавших осадков за период времени, мм. При наведении курсора мыши на число - период времени, за который выпало указанное количество осадков.
  • R24 - Количество осадков - Количество выпавших осадков за 24 часа, мм.
  • S - Снежный покров - Высота снежного покрова, см. При наведении курсора мыши на число - состояние снежного покрова и степень покрытия местности в баллах.